Location: Anankanda
(14.7841°N, 3.0348°W)
Time: 00:47:46
(UTC+00:00)

NOSS 2-1 (E) - Pass Details

Date: 17 January 2021
Orbit: 434 x 1768 km, 63.3° (Epoch: 27 February)

Event Time Altitude Azimuth Distance (km) Brightness Sun altitude
Rises 19:15:56 0° 215° (SW) 3,003 7.9 -17.4°
Reaches altitude 10° 19:18:34 10° 221° (SW) 1,915 6.9 -18.0°
Maximum altitude 19:22:30 43° 294° (WNW) 709 4.2 -18.9°
Enters shadow 19:24:33 20° 357° (N) 1,124 4.7 -19.4°
